When you browse on this site, cookies collect data to enhance your experience and personalize the content and advertising you see.
Visit our Privacy Policy to learn more. By continuing to use the site, you agree to this use of cookies and data.
  • En España
  • Lista de países
  • Para 7 días
  • Temperatura del agua
  • El tiempo en el mapa
  • Informadores
  • user-avatar
    Iniciar sesión

    Tiempo cada hora Aldaia

    Hoy, 31 Marzo, Martes

    Tiempo Temperatura Precipitaciones Viento Presión Humedad
    00:00 +8°C° 0 mm 2 mps 754 mmHg 92%
    01:00 +8°C° 0.3 mm 2 mps 754 mmHg 92%
    02:00 +8°C° 0.3 mm 2 mps 753 mmHg 93%
    03:00 +8°C° 0.3 mm 2 mps 752 mmHg 93%
    04:00 +8°C° 0.4 mm 2 mps 752 mmHg 93%
    05:00 +8°C° 0.4 mm 2 mps 752 mmHg 94%
    06:00 +8°C° 0 mm 2 mps 752 mmHg 93%
    07:00 +9°C° 1.8 mm 2 mps 752 mmHg 93%
    08:00 +9°C° 1.8 mm 2 mps 752 mmHg 93%
    09:00 +10°C° 1.8 mm 2 mps 752 mmHg 93%
    10:00 +10°C° 0.7 mm 2 mps 752 mmHg 93%
    11:00 +12°C° 0.7 mm 2 mps 752 mmHg 93%
    12:00 +12°C° 0 mm 2 mps 752 mmHg 94%
    13:00 +13°C° 0.5 mm 2 mps 752 mmHg 93%
    14:00 +13°C° 0.5 mm 2 mps 752 mmHg 93%
    15:00 +13°C° 0.5 mm 2 mps 752 mmHg 92%
    16:00 +14°C° 0.2 mm 2 mps 752 mmHg 92%
    17:00 +14°C° 0.2 mm 2 mps 752 mmHg 92%
    18:00 +14°C° 0.2 mm 2 mps 752 mmHg 92%
    19:00 +14°C° 0.1 mm 2 mps 753 mmHg 91%
    20:00 +14°C° 0.1 mm 2 mps 753 mmHg 91%
    21:00 +13°C° 0.1 mm 2 mps 754 mmHg 91%
    22:00 +13°C° 0 mm 2 mps 754 mmHg 90%
    23:00 +13°C° 0 mm 2 mps 754 mmHg 89%

    Mañana, 1 Abril, Miércoles

    Tiempo Temperatura Precipitaciones Viento Presión Humedad
    00:00 +14°C° 0 mm 2 mps 754 mmHg 88%
    01:00 +13°C° 0 mm 2 mps 754 mmHg 88%
    02:00 +13°C° 0 mm 2 mps 753 mmHg 88%
    03:00 +13°C° 0 mm 1 mps 753 mmHg 88%
    04:00 +13°C° 0 mm 1 mps 753 mmHg 88%
    05:00 +12°C° 0 mm 1 mps 753 mmHg 88%
    06:00 +12°C° 0 mm 1 mps 753 mmHg 87%
    07:00 +13°C° 0.1 mm 1 mps 753 mmHg 84%
    08:00 +15°C° 0.1 mm 1 mps 754 mmHg 81%
    09:00 +16°C° 0.1 mm 2 mps 754 mmHg 77%
    10:00 +16°C° 0.2 mm 2 mps 754 mmHg 73%
    11:00 +17°C° 0.2 mm 2 mps 754 mmHg 68%
    12:00 +18°C° 0.2 mm 3 mps 753 mmHg 64%
    13:00 +19°C° 0.1 mm 3 mps 753 mmHg 57%
    14:00 +20°C° 0.1 mm 3 mps 753 mmHg 50%
    15:00 +21°C° 0.1 mm 3 mps 753 mmHg 43%
    16:00 +19°C° 0.1 mm 3 mps 753 mmHg 54%
    17:00 +18°C° 0.1 mm 4 mps 752 mmHg 65%
    18:00 +15°C° 0.1 mm 5 mps 752 mmHg 76%
    19:00 +14°C° 0.2 mm 4 mps 753 mmHg 81%
    20:00 +13°C° 0.2 mm 4 mps 754 mmHg 86%
    21:00 +12°C° 0.2 mm 4 mps 754 mmHg 91%
    22:00 +12°C° 0.1 mm 3 mps 754 mmHg 90%
    23:00 +13°C° 0.1 mm 2 mps 754 mmHg 89%

    Pasado mañana, 2 Abril, Jueves

    Tiempo Temperatura Precipitaciones Viento Presión Humedad
    00:00 +13°C° 0.1 mm 1 mps 754 mmHg 88%
    01:00 +13°C° 0 mm 1 mps 754 mmHg 89%
    02:00 +12°C° 0 mm 1 mps 754 mmHg 90%
    03:00 +12°C° 0 mm 1 mps 753 mmHg 91%
    04:00 +11°C° 0 mm 1 mps 753 mmHg 90%
    05:00 +11°C° 0 mm 1 mps 753 mmHg 89%
    06:00 +11°C° 0 mm 1 mps 753 mmHg 89%
    07:00 +12°C° 0 mm 1 mps 753 mmHg 81%
    08:00 +14°C° 0 mm 1 mps 753 mmHg 73%
    09:00 +16°C° 0 mm 1 mps 754 mmHg 65%
    10:00 +17°C° 0.3 mm 2 mps 753 mmHg 64%
    11:00 +17°C° 0.3 mm 3 mps 753 mmHg 64%
    12:00 +18°C° 0.3 mm 4 mps 753 mmHg 63%
    13:00 +17°C° 0.5 mm 4 mps 753 mmHg 67%
    14:00 +17°C° 0.5 mm 4 mps 753 mmHg 71%
    15:00 +15°C° 0.5 mm 4 mps 752 mmHg 75%
    16:00 +14°C° 0.5 mm 4 mps 752 mmHg 79%
    17:00 +13°C° 0.5 mm 3 mps 753 mmHg 83%
    18:00 +12°C° 0.5 mm 3 mps 753 mmHg 87%
    19:00 +13°C° 0.3 mm 2 mps 753 mmHg 87%
    20:00 +13°C° 0.3 mm 2 mps 754 mmHg 88%
    21:00 +13°C° 0.3 mm 1 mps 754 mmHg 89%
    22:00 +13°C° 0.2 mm 2 mps 754 mmHg 90%
    23:00 +12°C° 0.2 mm 2 mps 754 mmHg 90%

    3 Abril, Viernes

    Tiempo Temperatura Precipitaciones Viento Presión Humedad
    00:00 +12°C° 0.2 mm 2 mps 754 mmHg 91%
    01:00 +11°C° 0.1 mm 3 mps 754 mmHg 90%
    02:00 +11°C° 0.1 mm 3 mps 754 mmHg 88%
    03:00 +11°C° 0.1 mm 3 mps 754 mmHg 86%
    04:00 +11°C° 0.1 mm 3 mps 754 mmHg 85%
    05:00 +11°C° 0.1 mm 3 mps 754 mmHg 84%
    06:00 +11°C° 0.1 mm 3 mps 755 mmHg 84%
    07:00 +12°C° 0 mm 3 mps 755 mmHg 79%
    08:00 +13°C° 0 mm 4 mps 755 mmHg 74%
    09:00 +14°C° 0 mm 5 mps 756 mmHg 70%
    10:00 +14°C° 0 mm 5 mps 756 mmHg 69%
    11:00 +15°C° 0 mm 5 mps 756 mmHg 67%
    12:00 +15°C° 0 mm 6 mps 757 mmHg 66%
    13:00 +15°C° 0.1 mm 5 mps 756 mmHg 66%
    14:00 +15°C° 0.1 mm 5 mps 756 mmHg 65%
    15:00 +16°C° 0.1 mm 5 mps 756 mmHg 65%
    16:00 +15°C° 0 mm 4 mps 756 mmHg 69%
    17:00 +14°C° 0 mm 3 mps 756 mmHg 73%
    18:00 +14°C° 0 mm 2 mps 757 mmHg 77%
    19:00 +13°C° 0 mm 2 mps 757 mmHg 80%
    20:00 +12°C° 0 mm 2 mps 758 mmHg 83%
    21:00 +11°C° 0 mm 1 mps 759 mmHg 86%
    22:00 +11°C° 0 mm 1 mps 759 mmHg 86%
    23:00 +11°C° 0 mm 1 mps 759 mmHg 86%

    4 Abril, Sábado

    Tiempo Temperatura Precipitaciones Viento Presión Humedad
    00:00 +11°C° 0 mm 1 mps 759 mmHg 85%
    01:00 +10°C° 0 mm 1 mps 759 mmHg 84%
    02:00 +10°C° 0 mm 1 mps 759 mmHg 83%
    03:00 +10°C° 0 mm 1 mps 758 mmHg 82%
    04:00 +10°C° 0 mm 1 mps 759 mmHg 81%
    05:00 +10°C° 0 mm 1 mps 759 mmHg 80%
    06:00 +10°C° 0 mm 1 mps 759 mmHg 78%
    07:00 +11°C° 0 mm 1 mps 759 mmHg 72%
    08:00 +13°C° 0 mm 1 mps 759 mmHg 66%
    09:00 +15°C° 0 mm 2 mps 759 mmHg 59%
    10:00 +16°C° 0 mm 2 mps 759 mmHg 59%
    11:00 +17°C° 0 mm 3 mps 759 mmHg 58%
    12:00 +18°C° 0 mm 4 mps 759 mmHg 57%
    13:00 +18°C° 0 mm 4 mps 759 mmHg 60%
    14:00 +18°C° 0 mm 4 mps 759 mmHg 62%
    15:00 +17°C° 0 mm 5 mps 758 mmHg 64%
    16:00 +17°C° 0 mm 4 mps 758 mmHg 71%
    17:00 +15°C° 0 mm 4 mps 758 mmHg 77%
    18:00 +14°C° 0 mm 3 mps 759 mmHg 83%
    19:00 +13°C° 0 mm 3 mps 759 mmHg 86%
    20:00 +13°C° 0 mm 3 mps 760 mmHg 88%
    21:00 +13°C° 0 mm 2 mps 760 mmHg 91%
    22:00 +13°C° 0 mm 2 mps 760 mmHg 92%
    23:00 +12°C° 0 mm 2 mps 760 mmHg 93%

    5 Abril, Domingo

    Tiempo Temperatura Precipitaciones Viento Presión Humedad
    00:00 +12°C° 0 mm 1 mps 760 mmHg 93%
    01:00 +12°C° 0 mm 1 mps 760 mmHg 92%
    02:00 +12°C° 0 mm 1 mps 760 mmHg 91%
    03:00 +12°C° 0 mm 1 mps 759 mmHg 90%
    04:00 +12°C° 0 mm 1 mps 759 mmHg 90%
    05:00 +12°C° 0 mm 1 mps 759 mmHg 90%
    06:00 +12°C° 0 mm 1 mps 759 mmHg 90%
    07:00 +13°C° 0.1 mm 1 mps 759 mmHg 88%
    08:00 +13°C° 0.1 mm 2 mps 760 mmHg 87%
    09:00 +14°C° 0.1 mm 2 mps 760 mmHg 86%
    10:00 +14°C° 0 mm 2 mps 760 mmHg 81%
    11:00 +15°C° 0 mm 2 mps 759 mmHg 76%
    12:00 +16°C° 0 mm 3 mps 759 mmHg 71%
    13:00 +16°C° 0 mm 3 mps 759 mmHg 71%
    14:00 +16°C° 0 mm 3 mps 758 mmHg 70%
    15:00 +16°C° 0 mm 2 mps 758 mmHg 70%
    16:00 +16°C° 0 mm 2 mps 758 mmHg 73%
    17:00 +15°C° 0 mm 2 mps 758 mmHg 76%
    18:00 +14°C° 0 mm 2 mps 758 mmHg 79%
    19:00 +14°C° 0.1 mm 1 mps 758 mmHg 82%
    20:00 +14°C° 0.1 mm 1 mps 759 mmHg 85%
    21:00 +12°C° 0.1 mm 0 mps 759 mmHg 87%
    22:00 +12°C° 0.3 mm 0 mps 759 mmHg 89%
    23:00 +12°C° 0.3 mm 0 mps 759 mmHg 90%
    Mostrar más